If you wish to contribute or participate in the discussions about articles you are invited to join SKYbrary as a registered user

 Actions

Agartala Airport

From SKYbrary Wiki

VEAT
Airport
ICAO: VEAT
Summary
Name Agartala Airport
Region Asia and Pacific
Territory India IN.gif
Location Agartala, Tripura
Serving
Coordinates 23° 53' 33.65" N, 91° 14' 38.26" E
Runways
Designator Length Width Surface ROPS
5/23 0 m0 ft <br /> 0 m0 ft <br /> UNK /
18/36 2286 m7,500 ft <br /> 45 m147.638 ft <br /> ASP yes/yes


METAR
Observation VEAT 250800Z 00000KT 2500 HZ NSC 31/20 Q1009 NOSIG
Station Agartala
Date/Time 25 February 2021 08:00:00
Wind direction
Wind speed 00 kts
Lowest cloud amount nil significant cloud
Temperature 31°C
Dew point 20°C
Humidity 52%
QNH 1009 hPa
Weather condition n/a

WX
Tag(s) Tropical Revolving Storm

Agartala Airport

ICAO: VEAT IATA: IXA

Description

Agartala Airport is a commercial airport located 1212 nm <br />22,224 m <br />22.224 km <br />72,913.386 ft <br /> km northwest of the city of Agartala, the capital of the state of Tripura.

Climatology

Tropical Savanna climate (Köppen climate classification Aw) - monthly mean temperatures above 18°C64.4 °F <br />291.15 K <br />524.07 °R <br />, and a pronounced dry season. A Tropical Savanna climate has more pronounced dry seasons than a Tropical Monsoon climate.

Maps

Terrain

Loading map...

Airport Layout

Loading map...


Accidents & Serious Incidents at or in vicinity of VEAT

None on SKYbrary